GFSSGP_700_rhum_102.txt.gz
RH
11 11 11 10 20 23 20 21 22 22 17 18 18 20 20 23 24 22 24 35 38 37 26 23 22 21 22 22 37 54 80 72 78 62 63 56 43 37 31 20 7 4 6 8 7 5 6 8 10
11 11 10 12 21 27 20 20 20 20 18 18 18 17 16 19 22 30 34 33 35 33 30 30 27 24 29 28 42 64 92 61 63 64 80 70 64 57 36 22 6 4 6 6 6 9 11 12 11
12 11 11 15 24 22 21 22 20 19 18 18 17 18 22 24 28 32 31 33 33 33 38 39 35 32 25 31 31 48 93 97 81 81 88 88 80 68 48 39 8 7 7 8 13 15 16 16 13
11 11 12 18 13 18 22 22 21 20 19 18 17 17 23 24 25 28 31 31 34 40 42 39 35 36 34 28 31 37 70 98 95 89 84 94 84 62 65 56 14 10 11 15 16 16 13 12 11
12 13 22 22 12 18 21 21 23 20 18 18 18 19 23 25 27 31 35 38 41 40 37 35 35 40 39 38 35 38 45 86 99 98 94 95 95 76 90 53 28 10 13 15 14 12 11 11 12
12 14 26 20 12 20 19 19 20 20 17 18 19 22 25 29 32 32 35 31 37 37 37 20 22 24 39 41 42 45 48 51 95 87 99 75 80 81 98 66 22 14 14 15 14 14 13 12 13
12 14 16 19 14 19 20 20 20 18 17 18 18 22 23 26 26 24 26 29 34 41 31 17 18 17 30 43 45 47 48 53 50 94 97 78 87 80 100 65 32 19 18 17 15 17 20 20 20
14 24 21 18 13 17 23 21 22 19 19 19 20 22 22 22 23 24 27 31 38 32 29 29 21 17 20 32 33 48 60 57 62 60 72 94 84 87 98 90 38 24 23 21 19 20 22 20 18
18 35 17 14 14 16 22 23 22 21 19 21 20 20 21 25 24 25 29 35 32 27 29 30 21 18 15 19 22 50 65 78 72 72 69 78 71 71 100 98 41 31 29 24 28 30 27 23 23
25 27 12 11 14 17 21 25 24 24 20 20 20 20 21 25 28 29 28 28 27 24 29 20 17 16 14 16 20 29 49 70 72 71 80 82 81 78 66 97 61 31 31 29 29 28 29 31 34
21 24 14 14 18 24 24 25 24 24 21 20 21 20 20 21 27 25 26 24 26 25 27 10 11 15 15 16 22 26 29 55 70 73 77 84 83 72 73 97 77 36 31 30 28 24 30 34 33
26 24 21 19 24 26 26 24 24 23 22 21 21 21 21 20 21 22 23 24 27 28 19 11 12 15 16 18 24 34 42 40 59 73 81 81 75 71 62 99 65 35 26 28 32 37 35 33 33
35 29 28 28 29 28 28 27 26 24 23 22 20 23 23 20 19 21 24 29 26 28 21 16 16 18 22 25 28 38 70 71 70 74 86 94 87 89 88 88 54 25 29 28 29 39 34 36 32
34 38 35 34 32 32 31 29 27 20 22 24 23 24 24 20 20 21 28 30 23 30 22 19 18 22 40 36 38 71 91 90 97 98 97 99 99 100 88 55 27 33 28 27 36 39 37 35 32
42 44 40 36 35 35 30 30 28 22 23 24 26 23 24 23 20 20 29 32 30 31 27 19 17 44 58 54 66 89 80 90 97 100 99 100 99 98 76 50 21 24 23 30 40 40 37 37 35
43 43 42 39 35 35 31 32 26 23 26 27 25 23 22 24 20 20 26 38 44 41 25 18 19 50 54 66 75 84 81 91 100 100 99 100 88 83 73 33 25 22 22 35 43 40 39 40 38
46 47 43 41 34 34 32 30 29 26 28 27 24 22 22 22 21 21 30 40 42 48 31 17 22 58 63 73 59 71 83 85 100 99 100 100 99 88 76 77 71 35 24 37 44 41 43 45 40
49 45 44 44 34 33 35 34 34 33 31 28 24 23 26 24 23 29 32 39 46 49 30 18 19 59 65 67 72 73 81 87 86 94 98 100 99 85 85 77 70 35 24 35 45 47 48 50 45
42 43 42 40 40 38 38 36 35 33 31 28 24 24 26 30 31 32 33 37 46 47 30 18 15 49 61 58 70 80 80 87 88 97 100 98 100 87 72 75 65 29 24 33 47 51 54 55 50
33 48 46 42 33 36 38 35 35 33 31 32 28 26 25 27 34 32 32 36 42 45 28 20 13 27 62 66 72 80 93 92 94 100 100 100 100 97 63 79 66 29 24 37 48 56 58 56 49
20 21 27 30 30 32 33 33 34 35 34 32 29 26 25 25 25 24 30 33 38 41 32 20 12 16 52 64 66 72 84 96 99 100 98 100 99 100 89 87 91 46 30 32 48 56 60 55 49
26 22 23 27 27 32 34 47 41 39 34 31 31 28 30 30 24 23 27 34 39 38 29 20 13 13 42 66 64 65 74 88 97 100 99 99 100 99 87 84 78 55 39 37 46 58 64 62 52
24 22 23 24 24 24 31 37 42 46 40 32 29 29 29 30 27 25 24 36 43 35 33 20 15 11 43 64 67 68 78 90 99 100 100 100 100 99 100 99 98 93 86 61 61 54 72 70 60
37 34 29 26 26 44 40 45 44 44 33 30 30 29 28 30 28 29 26 38 33 31 33 20 17 11 38 60 69 70 76 76 86 99 100 100 100 100 100 100 100 100 99 100 99 87 88 78 78
34 33 42 47 55 56 37 39 37 34 35 41 44 31 34 34 26 24 26 28 28 34 31 21 19 12 26 52 64 71 72 82 89 96 98 99 98 100 98 100 99 99 100 100 100 100 95 100 98
34 31 42 53 75 56 39 48 43 56 53 46 42 36 37 30 22 22 24 28 32 40 27 22 21 14 13 39 58 67 72 78 85 98 99 98 100 100 100 98 100 100 100 100 99 100 100 98 99
31 33 33 32 42 58 50 50 47 43 47 47 45 42 38 35 29 28 29 32 38 36 29 23 22 20 14 14 24 41 54 71 77 82 88 98 97 100 100 100 99 100 100 100 100 100 100 99 99
29 28 38 36 49 56 52 44 42 45 52 56 49 46 44 38 31 31 35 37 42 30 32 25 23 23 19 18 19 19 23 38 60 76 84 88 92 98 100 100 100 100 100 100 100 100 100 100 100
33 31 38 35 38 47 61 45 36 39 47 80 70 57 53 64 60 43 34 36 39 34 33 28 25 24 24 23 24 24 25 26 28 42 77 88 78 100 99 99 98 100 98 93 97 92 93 99 99
31 29 37 42 53 52 48 50 47 60 58 67 83 71 53 52 63 51 46 40 46 34 32 26 25 27 30 26 26 28 28 29 29 30 40 64 77 88 99 100 100 100 100 94 89 97 99 100 100

GFSSGP_700_rhum_108.txt.gz
RH
6 9 10 10 11 16 18 21 22 20 19 18 17 17 18 18 15 16 17 24 30 34 35 34 28 24 27 27 28 23 45 87 87 77 63 51 83 55 76 48 56 44 47 48 44 31 10 25 55
7 9 10 10 13 19 19 22 22 22 21 21 21 19 18 17 16 19 20 22 29 30 30 28 31 36 26 33 33 29 35 83 88 79 62 65 68 84 52 44 49 42 49 53 40 26 16 19 54
9 10 10 10 11 11 21 21 21 22 22 22 20 20 19 17 17 22 23 22 27 28 29 32 35 38 24 33 37 33 34 81 82 87 74 75 69 48 47 41 38 30 25 23 22 16 20 24 35
12 11 10 10 10 13 22 22 22 21 20 20 21 22 19 17 18 22 24 28 30 28 30 34 37 34 22 20 37 38 36 49 87 84 67 87 67 53 58 51 41 26 11 15 23 19 14 31 12
13 11 10 10 9 8 14 23 24 20 21 21 21 21 20 18 20 21 25 30 29 27 30 34 39 31 28 19 28 39 40 54 77 93 86 84 78 74 73 67 57 21 9 19 18 24 23 17 15
14 12 11 10 8 8 11 17 22 19 19 20 21 20 19 20 20 23 24 25 24 27 30 36 34 30 28 28 22 32 44 46 64 85 94 74 89 75 80 92 58 25 13 26 17 18 18 21 18
11 14 11 9 8 8 10 23 21 20 20 21 21 21 21 21 22 22 23 24 26 27 30 34 31 29 28 28 24 29 46 60 72 72 98 90 98 98 81 100 88 43 26 28 42 24 17 17 15
12 17 14 10 8 8 11 24 24 23 22 23 23 23 21 22 21 22 24 25 26 27 31 32 30 31 28 25 23 24 39 56 60 68 78 96 98 99 72 91 98 88 65 46 50 23 15 14 14
12 19 14 9 8 7 10 21 24 24 23 23 22 24 24 23 22 21 22 23 25 27 29 32 32 32 26 14 16 19 32 46 59 74 81 81 83 98 90 100 99 99 97 44 28 17 14 15 15
16 14 14 8 8 8 10 13 23 24 24 21 22 22 23 23 22 21 21 21 21 21 26 28 33 30 26 16 15 17 20 27 34 47 62 80 76 98 96 99 95 92 98 90 22 16 15 17 19
23 18 14 11 10 11 11 14 16 20 21 22 22 21 22 23 24 21 21 21 22 21 21 28 32 34 25 20 22 19 19 22 27 34 53 76 91 83 100 99 99 98 97 80 20 17 18 21 22
28 25 23 18 16 16 14 15 16 19 19 22 23 23 22 23 24 24 22 21 21 20 21 22 32 36 24 19 22 22 23 24 28 30 49 68 86 85 97 99 99 99 100 64 23 18 20 21 22
34 30 28 27 24 22 21 18 18 19 17 24 24 24 24 23 24 25 24 22 22 20 21 26 34 31 25 23 20 24 46 44 37 33 44 54 70 87 93 98 98 81 96 56 24 24 26 23 35
37 37 36 35 33 30 28 24 28 16 16 21 24 23 24 26 27 27 26 23 21 23 23 37 35 39 33 31 21 43 60 70 50 40 41 45 61 84 98 99 94 73 90 46 27 29 31 27 40
33 34 34 36 36 34 33 32 27 22 22 22 23 24 26 27 26 25 26 23 22 24 23 29 42 49 48 43 21 50 69 79 63 42 57 81 69 81 100 100 93 75 82 65 29 30 33 30 43
40 40 39 37 34 35 35 30 30 29 27 26 27 28 26 25 25 27 26 21 22 23 24 28 38 50 50 52 20 47 47 60 54 68 89 95 97 86 99 99 99 93 81 74 31 29 29 26 45
40 50 45 43 39 39 36 31 34 32 32 30 29 28 28 27 26 26 23 22 22 24 24 25 37 48 49 49 19 44 53 67 85 86 90 98 99 99 98 100 100 98 94 93 40 29 29 30 41
40 39 43 45 41 43 41 37 36 34 34 33 31 30 31 29 26 24 22 25 23 25 26 25 36 44 50 35 16 31 59 63 67 88 92 99 100 98 100 100 99 99 98 88 62 31 30 38 38
23 37 44 44 44 46 42 39 39 37 36 37 33 31 32 30 27 24 24 24 26 28 27 31 34 41 49 36 17 18 56 67 71 77 88 100 100 100 100 98 100 100 99 74 70 32 28 40 36
14 27 30 37 40 42 36 28 30 32 31 31 32 32 32 32 29 26 24 24 28 31 32 33 34 37 50 41 18 14 45 65 68 80 89 93 98 100 100 97 100 99 100 81 72 33 28 42 36
16 14 29 29 25 23 34 24 22 21 21 22 24 27 31 32 31 30 26 27 27 30 32 32 34 39 49 39 18 14 37 66 69 76 86 94 100 99 99 98 100 100 92 56 38 33 32 39 38
26 19 19 25 33 31 27 36 30 26 23 24 26 27 29 32 31 31 28 29 27 28 26 26 33 44 52 31 18 14 43 67 67 76 87 96 100 100 100 100 99 95 66 45 36 34 35 39 40
24 22 19 18 22 26 28 30 28 33 32 23 28 32 30 29 30 31 30 31 28 27 28 27 36 48 53 25 17 16 54 63 66 76 87 89 96 99 96 99 67 36 32 41 34 35 40 42 42
20 33 32 33 32 43 32 29 31 29 26 33 33 31 44 33 29 30 30 31 30 29 26 27 38 50 46 21 16 25 59 68 70 77 93 80 100 99 100 97 56 31 41 44 37 42 46 47 46
50 42 53 56 55 50 32 33 30 34 34 36 40 57 47 46 31 32 30 30 30 30 28 28 42 54 33 21 14 31 61 66 67 72 93 97 100 99 98 96 89 80 74 56 47 51 55 54 54
48 57 52 56 73 54 36 41 32 34 42 52 46 52 50 46 46 35 32 31 32 30 29 34 43 53 24 21 14 28 55 66 68 71 84 100 100 98 100 99 100 99 96 77 70 76 82 73 72
43 50 46 41 49 53 43 44 36 34 31 37 46 57 56 49 46 44 33 32 30 28 29 38 54 46 22 21 15 23 55 65 70 77 88 98 95 100 99 100 100 100 100 100 93 97 93 98 94
37 40 43 41 51 53 49 53 40 39 37 54 46 49 55 50 49 46 42 33 30 28 30 48 59 34 20 20 18 22 34 41 50 49 87 92 97 100 99 99 100 100 100 100 100 99 99 96 97
35 34 36 38 43 52 53 45 38 36 35 36 50 60 57 53 54 49 47 38 31 27 34 52 59 24 21 21 21 27 39 33 34 35 60 97 92 99 100 100 100 100 100 100 99 99 99 99 100
40 31 34 40 47 46 43 43 44 43 37 40 57 56 60 69 57 65 62 53 38 38 52 56 52 23 22 22 23 26 29 30 34 37 41 67 88 92 97 100 99 100 100 100 100 100 100 100 100

GFSSGP_700_rhum_111.txt.gz
RH
5 6 8 9 10 11 13 18 20 20 21 22 21 20 21 20 17 16 18 22 31 32 34 30 28 27 24 17 26 27 23 43 81 81 72 64 63 87 100 94 84 66 76 73 59 42 25 14 36
5 7 9 10 11 14 15 19 21 21 21 20 19 19 20 18 17 17 18 20 26 29 27 30 30 30 23 17 28 32 30 53 85 78 76 88 99 100 92 72 82 73 67 64 74 52 25 13 55
6 8 10 10 10 11 12 21 22 22 22 22 21 20 19 18 18 18 21 23 24 30 29 31 33 33 25 20 23 36 35 43 85 74 81 68 89 76 80 76 63 92 65 49 42 32 30 15 56
8 9 10 9 8 10 12 21 21 21 22 23 21 20 19 19 18 20 22 27 28 28 28 31 34 30 27 24 20 31 38 40 68 82 87 87 84 95 92 59 65 67 55 24 28 35 20 19 56
11 10 10 9 8 7 17 24 24 22 21 21 21 20 20 19 19 21 21 28 30 25 28 30 36 31 28 24 25 23 35 44 65 67 78 88 94 93 90 76 83 74 40 46 36 36 21 22 35
16 12 12 9 7 7 9 16 19 22 20 20 22 21 20 20 20 21 22 25 24 26 27 30 35 32 29 29 22 24 27 43 58 71 74 85 96 83 79 74 71 65 68 30 48 28 28 20 20
12 14 12 9 8 8 8 12 15 20 20 19 20 21 20 21 22 22 22 23 24 26 27 29 32 32 32 30 16 18 25 42 47 54 62 82 84 96 92 78 87 75 74 38 63 37 22 25 20
10 14 18 10 8 7 8 12 22 22 21 20 21 22 21 24 23 21 22 23 25 26 27 29 32 31 35 31 16 12 18 29 41 56 64 67 63 85 95 80 96 90 88 48 62 46 33 33 22
15 17 18 8 6 7 8 11 24 24 23 23 23 23 24 24 23 22 22 22 23 24 26 28 32 33 34 34 19 17 15 20 31 46 62 72 70 70 89 81 99 86 94 59 62 60 52 26 32
22 17 14 10 8 7 9 10 19 23 24 25 24 23 24 23 23 22 21 22 21 22 23 29 29 37 35 35 25 21 20 20 22 27 52 68 74 78 73 90 100 87 95 94 77 54 32 19 18
29 26 21 18 15 12 11 10 11 14 24 23 23 23 23 22 22 21 22 23 21 24 25 25 33 38 42 36 25 23 24 21 27 25 28 48 60 90 84 80 95 94 98 98 73 36 20 17 18
34 32 30 27 24 20 16 14 13 12 15 23 22 22 22 22 22 22 21 22 23 24 23 26 28 37 41 33 33 26 23 29 40 40 34 41 54 74 92 82 100 92 99 100 91 76 20 17 19
39 36 34 31 29 26 25 22 19 18 14 14 17 17 22 22 22 21 21 22 23 22 23 24 25 39 39 43 45 36 26 42 60 60 56 50 54 73 97 92 97 97 100 97 96 88 19 21 23
41 40 39 38 36 35 33 28 28 23 18 18 18 18 22 25 24 23 22 21 24 22 24 24 25 40 47 50 57 60 28 56 63 72 70 56 55 71 84 95 89 98 95 91 99 45 20 22 24
36 39 38 36 37 37 36 31 30 28 26 24 23 23 24 25 25 24 23 22 25 23 24 24 25 26 42 49 55 61 24 53 51 79 74 68 44 61 78 88 92 99 89 96 98 38 24 23 24
32 35 42 41 37 35 35 32 35 32 30 29 27 27 29 29 27 25 24 23 25 24 22 23 24 26 34 46 55 54 20 53 55 60 80 61 56 58 76 80 92 99 82 96 98 31 26 27 26
24 33 42 42 42 42 39 35 35 35 33 33 32 32 31 30 28 27 25 24 25 22 22 24 24 26 32 42 55 52 18 41 55 61 55 72 84 99 93 79 100 96 86 90 75 41 30 32 30
32 30 24 27 37 39 41 39 38 38 38 39 35 34 33 30 25 29 28 26 24 23 23 24 24 27 28 39 53 56 20 24 51 66 73 79 86 96 98 96 100 100 96 90 84 76 31 32 32
15 25 28 37 44 47 44 40 35 33 36 38 36 35 34 30 26 27 27 26 23 24 24 25 26 28 28 39 54 60 24 17 26 68 72 85 91 100 100 100 100 99 99 98 89 73 38 30 29
14 21 16 25 22 34 29 20 24 26 25 26 26 29 31 32 29 28 28 26 24 24 25 27 30 31 32 45 57 60 26 16 20 66 74 80 94 99 99 100 100 100 100 99 100 89 70 36 29
25 19 22 21 30 26 25 17 17 15 16 17 19 21 24 25 27 29 29 28 26 24 25 29 31 32 36 49 54 58 23 16 31 62 70 76 84 96 98 99 99 100 100 99 98 99 77 36 32
38 30 26 26 39 33 25 21 23 26 18 18 20 24 24 24 26 26 29 29 28 25 26 26 25 27 34 46 53 53 20 17 50 64 67 75 89 90 100 100 100 100 100 99 98 93 67 39 32
33 30 26 26 29 39 30 31 23 32 28 24 27 28 27 26 25 26 28 30 30 27 26 29 28 27 37 46 57 42 17 22 53 62 68 72 85 92 100 100 100 100 100 100 98 100 80 48 30
24 26 25 28 32 33 29 28 26 27 27 25 36 31 29 32 42 31 24 28 29 29 31 29 28 30 40 51 58 28 16 33 59 66 69 79 94 93 100 100 100 98 100 100 97 100 61 41 31
24 36 35 42 44 38 32 33 24 28 32 33 30 42 44 37 32 40 33 26 29 30 33 31 30 33 45 57 60 20 17 50 62 65 62 69 94 98 99 100 99 100 99 100 93 72 41 34 33
26 36 36 37 42 33 34 36 32 30 32 32 45 33 39 52 50 43 46 43 30 31 32 33 34 38 52 66 45 18 22 55 65 71 66 72 94 100 100 98 100 100 98 75 61 63 38 34 37
50 50 32 36 52 49 46 39 34 33 37 53 54 40 53 40 36 35 47 46 39 31 31 32 35 40 59 68 25 18 27 50 52 65 65 80 96 100 98 100 100 97 58 48 46 50 44 42 45
43 32 54 51 44 48 42 50 37 47 43 46 56 57 43 33 40 34 32 50 43 37 31 32 32 48 66 54 21 18 23 30 36 45 50 85 100 98 100 100 100 94 77 84 85 64 60 54 51
35 49 51 46 44 35 35 36 34 37 52 49 52 44 39 45 51 47 38 50 47 43 32 33 34 56 61 31 21 20 22 24 31 38 44 89 90 89 100 99 99 99 99 100 100 99 90 92 95
36 29 44 42 46 45 38 38 42 39 40 45 46 48 56 55 49 52 48 57 51 45 35 37 46 55 54 24 21 22 24 25 32 35 46 82 86 98 100 100 100 100 100 100 96 99 100 99 98

GFSSGP_700_rhum_114.txt.gz
RH
5 5 6 7 19 16 12 15 21 22 21 20 21 22 27 25 26 20 17 18 28 29 32 30 26 20 18 16 15 19 20 27 52 59 65 68 75 88 98 97 96 81 89 81 54 42 33 38 56
5 5 7 12 15 11 9 15 21 22 24 22 20 20 20 23 18 17 18 19 21 26 26 24 22 26 24 19 16 20 26 27 57 77 74 73 93 98 98 99 98 92 73 88 73 54 48 19 29
5 6 14 18 14 10 8 17 21 24 19 21 20 20 25 23 18 19 21 22 22 26 25 22 22 26 24 20 19 19 28 30 37 72 65 73 83 95 98 97 85 79 75 70 65 60 50 24 30
6 8 9 15 13 13 13 18 26 26 22 20 23 25 20 19 18 18 20 23 27 27 26 26 30 28 26 26 16 19 23 33 55 70 65 82 87 91 88 92 86 75 56 66 66 39 35 27 30
8 18 18 15 12 12 18 27 23 25 26 23 22 24 21 19 19 20 21 22 27 25 26 27 30 32 29 27 19 12 22 28 43 73 77 82 83 99 95 75 99 64 64 65 48 52 41 26 33
19 16 18 12 10 16 10 20 24 22 24 22 21 23 21 20 20 21 22 22 26 25 26 27 29 33 31 30 22 10 15 22 34 56 64 60 71 88 82 61 86 82 77 61 46 46 40 35 42
16 23 15 13 11 16 16 14 18 23 25 24 21 24 26 20 20 21 23 23 24 24 25 26 28 33 33 32 28 15 12 14 20 37 58 75 81 78 86 73 84 83 73 71 73 68 52 44 31
19 28 22 17 15 12 16 9 10 18 25 22 20 25 27 20 20 20 21 23 24 24 26 26 28 33 36 35 32 20 16 15 14 25 45 71 82 100 91 93 86 82 82 82 82 77 58 50 36
27 28 22 19 16 15 17 9 11 16 25 23 22 24 24 20 19 19 21 21 22 24 24 27 28 33 36 37 36 26 18 19 18 20 36 62 86 95 72 76 93 91 85 79 90 88 58 39 36
31 31 24 20 20 18 20 20 21 20 26 27 23 23 22 20 20 21 21 21 21 22 22 26 24 28 37 41 39 31 24 22 22 21 24 47 70 85 73 81 97 99 92 96 96 70 59 50 42
36 36 31 28 23 18 20 22 21 18 22 25 28 28 23 22 21 21 21 21 21 21 23 27 27 30 35 43 42 32 30 31 31 35 38 40 54 82 86 79 84 91 100 98 79 83 67 64 46
43 40 39 34 30 28 25 27 28 23 20 21 28 25 25 23 22 22 21 21 21 20 22 24 26 28 31 42 37 43 43 50 37 44 57 54 55 71 87 82 88 84 96 98 94 87 77 50 42
45 42 40 42 34 34 32 30 30 28 27 10 13 23 23 23 23 22 21 21 20 20 21 22 25 24 34 38 44 50 56 63 46 55 72 72 53 58 67 76 91 87 93 99 97 94 68 35 24
40 44 45 44 42 40 38 32 33 31 30 19 16 14 17 19 18 22 22 21 21 21 22 24 25 25 26 42 45 53 53 51 38 53 62 81 76 66 64 74 93 94 98 100 99 97 97 84 22
43 43 43 42 43 42 41 38 37 37 34 28 23 21 20 20 17 19 22 23 23 22 22 22 26 25 24 27 43 49 56 44 21 50 59 76 77 83 64 75 85 95 98 99 98 100 98 62 24
41 40 40 37 42 43 38 33 34 34 35 29 29 28 27 26 24 24 22 22 23 23 23 23 25 24 24 26 30 44 56 49 20 43 56 74 74 68 62 72 77 91 99 100 97 100 88 28 27
30 29 24 28 44 42 42 34 34 40 36 36 37 36 37 37 33 28 25 23 24 26 24 25 24 22 24 25 27 39 52 56 23 19 56 57 72 56 42 57 78 88 100 99 95 98 79 28 29
21 23 25 26 24 31 38 36 37 40 40 40 40 40 41 39 37 31 28 26 24 28 26 23 22 23 24 25 27 31 49 60 29 15 41 59 63 64 57 71 87 98 100 100 98 98 70 29 29
21 20 20 20 24 40 34 32 32 34 36 39 42 34 40 40 30 30 31 27 28 28 27 22 23 23 24 25 30 30 49 64 35 16 20 60 65 73 88 89 98 98 100 97 99 98 54 36 33
24 21 20 19 20 30 30 23 24 26 30 34 36 36 33 31 31 31 30 27 28 28 27 23 24 24 24 26 28 32 47 59 36 17 17 48 67 77 85 95 100 98 100 98 99 92 81 44 31
20 19 18 22 22 23 26 24 23 22 23 24 22 20 22 25 25 25 29 29 26 28 27 24 24 25 27 29 29 36 45 58 34 17 30 53 67 74 88 95 100 100 100 99 99 98 92 74 33
22 19 24 27 26 23 22 19 16 23 23 22 23 28 21 18 19 22 24 26 27 28 28 26 24 26 29 30 30 37 48 57 30 18 43 55 67 76 87 97 98 97 98 100 99 100 95 83 52
24 23 28 33 30 28 24 24 17 18 18 26 27 41 20 23 26 28 25 24 25 27 30 27 26 27 27 28 31 42 52 60 25 20 51 55 64 73 92 96 100 99 100 98 100 100 100 98 94
30 35 32 30 26 28 23 24 16 16 24 24 43 28 32 34 44 39 43 25 24 28 31 28 27 26 26 28 34 42 58 50 20 32 57 61 67 77 87 96 100 100 99 100 100 100 100 98 100
29 32 22 26 27 23 17 22 18 20 34 44 55 33 42 42 32 34 42 37 31 27 29 30 28 27 28 29 36 47 64 31 17 43 51 58 65 68 99 100 100 100 97 99 100 99 100 100 97
27 28 21 22 21 19 24 26 22 24 31 44 34 41 50 38 45 40 38 43 43 39 29 31 31 32 30 31 38 58 55 22 20 42 52 62 61 74 98 99 100 100 100 100 100 100 100 100 97
23 27 21 14 16 22 18 27 23 31 28 38 31 47 46 54 42 31 30 31 38 45 37 33 32 33 32 35 48 63 30 19 27 27 30 29 53 92 100 100 100 100 100 100 100 100 100 100 93
22 25 22 17 24 22 13 18 23 37 50 68 37 55 48 53 36 39 43 38 28 41 45 37 34 33 35 39 59 57 22 18 23 21 21 20 62 89 99 98 99 100 99 99 100 100 100 97 81
33 38 28 18 21 18 20 19 27 48 63 78 70 50 61 43 47 50 32 30 29 43 47 42 37 34 35 44 57 36 22 19 23 22 22 22 61 96 98 98 100 100 100 99 100 99 82 54 50
26 34 32 28 24 22 20 20 32 45 69 89 59 70 58 56 45 36 43 34 43 44 52 46 46 39 40 59 55 24 21 21 25 25 23 27 63 84 100 97 99 100 100 95 98 88 53 65 39

GFSSGP_700_rhum_117.txt.gz
RH
4 5 5 7 22 14 9 9 10 16 18 19 20 26 22 22 26 27 24 16 16 19 42 32 25 21 16 14 14 14 16 17 19 32 44 52 60 75 98 98 98 80 68 63 44 37 38 43 54
4 5 6 20 20 10 10 8 12 14 20 23 23 33 23 21 23 29 19 17 17 18 24 25 19 18 16 13 14 15 17 19 18 37 63 67 68 80 97 95 97 87 78 77 64 50 42 42 40
4 5 22 19 15 11 7 8 11 15 23 22 24 25 22 22 24 32 42 18 19 19 22 18 20 22 21 17 10 14 15 19 22 32 58 62 71 97 99 100 94 97 87 71 59 54 51 35 16
5 6 22 22 14 10 9 8 13 17 23 23 22 23 23 27 30 31 43 18 22 24 22 24 26 28 27 22 14 8 13 16 28 31 52 62 83 81 92 86 94 99 88 73 67 56 48 40 18
10 24 20 14 11 9 9 12 17 22 20 23 22 22 23 28 35 30 28 19 20 23 24 26 27 30 29 26 21 11 8 13 18 37 43 58 62 86 94 89 99 98 95 69 67 61 37 34 22
26 22 18 14 11 10 9 12 19 22 20 22 23 22 23 30 38 25 19 20 20 22 24 26 27 29 32 29 27 16 12 10 14 33 64 60 59 81 77 62 63 80 83 83 59 46 52 46 36
30 21 18 14 12 10 10 14 14 18 19 20 24 23 23 34 34 26 19 21 21 21 23 24 26 28 33 31 28 26 16 15 12 17 33 53 62 71 90 69 68 86 82 78 62 71 75 51 40
32 27 21 17 16 13 12 12 16 15 17 20 23 22 21 34 29 19 19 20 21 21 23 24 26 27 31 33 29 31 21 17 17 15 27 42 52 72 78 86 74 79 84 75 77 76 76 70 45
37 33 26 20 18 15 13 15 16 14 15 23 23 26 29 33 28 20 19 20 20 20 22 22 26 28 28 33 32 32 27 19 19 19 27 37 46 62 78 89 70 86 83 82 87 82 86 82 58
41 35 29 23 18 16 16 16 16 18 19 18 24 25 25 28 29 21 20 20 20 20 21 21 24 23 24 32 35 33 28 22 26 25 23 35 42 55 76 86 71 77 90 92 93 89 88 97 54
41 39 32 27 24 21 19 20 17 16 19 17 22 25 29 29 32 34 38 30 20 21 21 21 22 24 24 26 35 33 29 26 34 38 30 43 41 61 77 88 82 75 86 90 88 97 94 82 48
40 40 38 34 31 28 27 26 24 19 18 16 18 22 28 30 31 32 36 38 47 27 20 21 22 22 23 26 36 34 36 37 38 52 37 54 64 64 60 73 84 77 80 87 94 96 79 72 63
36 36 38 38 36 36 33 31 31 29 25 23 19 21 26 29 29 31 32 35 40 47 22 20 22 22 22 25 35 36 46 49 48 49 30 54 63 69 62 76 72 79 85 85 95 98 82 71 85
38 39 38 40 41 38 39 37 35 32 32 30 28 25 25 27 28 29 32 34 36 21 22 20 21 22 23 24 28 32 42 50 52 46 22 47 61 74 78 76 78 72 75 86 96 99 84 97 80
33 36 37 37 37 38 38 36 36 35 34 32 30 29 26 22 22 25 28 32 33 42 23 22 22 22 23 24 24 25 32 42 53 50 19 40 60 75 82 73 75 73 78 89 99 98 98 98 80
28 34 37 33 34 34 36 34 33 32 32 32 34 34 31 28 26 24 27 30 31 35 48 26 23 22 24 24 24 24 28 34 47 52 21 22 54 69 79 85 77 75 82 91 100 98 100 99 97
18 17 20 24 24 30 36 36 31 31 31 31 35 35 35 35 34 31 29 30 31 35 41 40 20 22 23 25 24 25 27 28 40 53 31 15 42 62 72 79 78 80 72 90 96 100 99 100 99
12 17 16 18 20 22 28 31 32 32 31 36 34 32 33 34 34 34 35 34 34 37 30 22 23 24 26 26 23 25 25 30 35 53 44 18 16 54 74 74 74 72 75 84 91 99 98 100 99
15 14 16 21 18 20 21 22 23 28 28 30 33 34 35 37 37 37 37 37 38 39 22 24 25 26 26 23 22 26 25 30 33 49 53 24 15 36 64 77 79 69 79 89 96 100 100 98 74
10 12 16 12 14 14 16 21 29 27 24 25 28 30 34 36 37 37 38 39 40 29 23 26 26 26 24 23 23 24 25 28 34 46 54 27 17 24 64 72 70 60 99 100 99 100 99 100 78
13 11 11 13 13 15 17 17 16 19 20 19 18 22 27 30 31 29 31 34 37 30 26 26 28 27 23 23 23 24 25 28 35 43 57 28 18 33 62 72 82 90 96 100 96 100 98 99 98
16 14 15 13 14 14 16 15 13 14 15 16 18 19 21 22 24 25 29 37 44 34 29 26 29 28 24 24 25 26 27 30 37 44 53 28 18 39 58 70 80 86 92 100 99 100 98 100 90
13 14 19 16 16 19 15 12 12 13 15 17 18 20 22 32 43 49 50 48 48 49 30 29 29 30 26 24 26 28 28 30 35 46 47 23 21 47 54 60 69 83 78 100 99 100 97 99 96
27 18 20 23 20 24 18 14 11 12 15 19 23 27 39 60 66 65 65 42 28 52 24 25 29 31 28 25 26 28 30 31 35 45 37 18 30 53 59 62 67 87 98 99 100 100 100 99 100
31 26 20 29 27 25 16 15 13 13 14 16 30 56 69 72 75 74 77 43 41 33 24 25 30 32 30 28 28 28 30 37 41 43 28 16 38 55 68 73 80 93 100 100 100 100 99 99 99
29 26 21 30 26 19 12 12 12 14 15 26 44 66 73 77 65 46 37 36 41 44 34 30 30 32 31 31 30 29 34 40 49 40 22 16 38 58 64 66 76 92 100 100 100 100 100 99 100
25 25 21 22 17 16 12 12 16 16 20 40 64 69 78 82 64 42 32 27 32 31 42 40 31 31 33 32 32 34 37 42 53 30 18 16 22 32 32 69 96 100 99 100 100 100 100 100 100
30 23 21 21 28 23 13 13 14 18 25 40 53 70 86 54 52 40 37 36 34 33 30 46 42 33 34 35 36 39 45 56 44 24 16 18 20 21 50 79 95 100 99 99 100 100 100 99 100
26 23 17 21 21 22 18 13 14 16 23 30 48 72 91 96 52 37 35 29 27 27 26 42 48 42 38 40 39 45 52 60 29 20 17 19 23 25 62 84 96 96 100 100 100 99 100 100 100
61 21 18 19 22 16 14 15 28 19 35 40 66 81 98 78 52 38 32 30 29 31 29 39 50 50 43 43 43 51 60 48 24 19 19 21 24 30 57 81 97 100 98 100 100 100 100 100 100